TimeMST,TemperatureF,Dew PointF,Humidity,Sea Level PressureIn,VisibilityMPH,Wind Direction,Wind SpeedMPH,Gust SpeedMPH,PrecipitationIn,Events,Conditions,WindDirDegrees,DateUTC
12:53 AM,25.0,15.1,66,29.94,10.0,SSW,5.8,-,N/A,,Clear,210,2013-02-13 07:53:00
1:53 AM,21.0,14.0,74,29.94,10.0,Calm,Calm,-,N/A,,Clear,0,2013-02-13 08:53:00
2:53 AM,21.9,14.0,72,29.93,10.0,SSW,4.6,-,N/A,,Clear,210,2013-02-13 09:53:00
3:53 AM,25.0,16.0,69,29.91,10.0,NNW,4.6,-,N/A,,Overcast,330,2013-02-13 10:53:00
4:53 AM,23.0,15.8,74,29.82,10.0,WNW,3.5,-,N/A,,Mostly Cloudy,290,2013-02-13 11:53:00
5:53 AM,25.0,16.0,69,29.92,10.0,Calm,Calm,-,N/A,,Overcast,0,2013-02-13 12:53:00
6:53 AM,30.9,17.1,57,29.92,10.0,South,4.6,-,N/A,,Mostly Cloudy,180,2013-02-13 13:53:00
7:53 AM,28.9,17.1,61,29.93,10.0,South,3.5,-,N/A,,Mostly Cloudy,190,2013-02-13 14:53:00
8:53 AM,34.0,21.0,59,29.91,10.0,East,3.5,-,N/A,,Overcast,90,2013-02-13 15:53:00
9:53 AM,39.9,23.0,51,29.88,10.0,NW,19.6,-,N/A,,Mostly Cloudy,310,2013-02-13 16:53:00
10:53 AM,42.1,24.1,49,29.90,10.0,NW,25.3,34.5,N/A,,Mostly Cloudy,310,2013-02-13 17:53:00
11:53 AM,42.1,24.1,49,29.90,10.0,NW,21.9,28.8,N/A,,Partly Cloudy,310,2013-02-13 18:53:00
12:53 PM,39.0,26.1,60,29.92,10.0,North,15.0,-,N/A,,Overcast,350,2013-02-13 19:53:00
1:53 PM,34.0,30.9,89,29.99,9.0,NNW,13.8,-,0.00,,Overcast,340,2013-02-13 20:53:00
2:15 PM,33.8,30.2,87,29.90,4.0,NNE,17.3,-,0.00,Snow,Light Snow,20,2013-02-13 21:15:00
2:22 PM,33.8,30.2,87,29.90,4.0,North,15.0,-,0.01,Snow,Light Snow,10,2013-02-13 21:22:00
2:32 PM,33.8,30.2,87,29.92,1.8,NNW,15.0,-,0.01,Snow,Light Snow,340,2013-02-13 21:32:00
2:39 PM,33.8,30.2,87,29.92,0.5,NNW,17.3,26.5,0.01,Fog-Snow,Snow,340,2013-02-13 21:39:00
2:53 PM,32.0,30.9,96,30.05,0.5,NW,15.0,-,0.03,Fog-Snow,Snow,320,2013-02-13 21:53:00
3:23 PM,32.0,30.2,93,29.94,0.2,NW,13.8,-,0.05,Fog-Snow,Heavy Snow,310,2013-02-13 22:23:00
3:32 PM,32.0,30.2,93,29.93,0.8,NW,16.1,-,0.06,Snow,Light Snow,310,2013-02-13 22:32:00
3:36 PM,32.0,30.2,93,29.94,2.0,NW,16.1,-,0.06,Snow,Light Snow,310,2013-02-13 22:36:00
3:43 PM,32.0,30.2,93,29.94,2.0,WNW,16.1,-,0.06,Snow,Light Snow,300,2013-02-13 22:43:00
3:47 PM,32.0,30.2,93,29.94,0.8,WNW,20.7,-,0.06,Snow,Light Snow,300,2013-02-13 22:47:00
3:53 PM,32.0,30.0,92,30.04,0.2,WNW,24.2,28.8,0.07,Fog-Snow,Heavy Snow,290,2013-02-13 22:53:00
4:01 PM,32.0,30.2,93,29.93,0.5,West,19.6,29.9,0.00,Fog-Snow,Snow,280,2013-02-13 23:01:00
4:03 PM,32.0,30.2,93,29.93,1.0,WNW,20.7,29.9,0.00,Snow,Light Snow,290,2013-02-13 23:03:00
4:07 PM,32.0,30.2,93,29.93,3.0,WNW,19.6,-,0.00,Snow,Light Snow,290,2013-02-13 23:07:00
4:19 PM,33.8,30.2,87,29.93,9.0,WNW,17.3,-,0.00,Snow,Light Snow,290,2013-02-13 23:19:00
4:33 PM,33.8,30.2,87,29.94,1.5,WNW,28.8,33.4,0.00,Snow,Light Snow,290,2013-02-13 23:33:00
4:40 PM,33.8,30.2,87,29.93,1.0,West,25.3,-,0.00,Snow,Light Snow,280,2013-02-13 23:40:00
4:50 PM,33.8,28.4,81,29.93,3.0,WNW,20.7,31.1,0.00,Snow,Light Snow,290,2013-02-13 23:50:00
4:53 PM,33.1,28.9,85,30.05,7.0,WNW,20.7,-,0.00,Snow,Light Snow,290,2013-02-13 23:53:00
5:04 PM,33.8,28.4,81,29.95,1.8,WNW,25.3,34.5,0.00,Snow,Light Snow,300,2013-02-14 00:04:00
5:26 PM,33.8,28.4,81,29.95,3.0,WNW,24.2,-,0.00,Snow,Light Snow,300,2013-02-14 00:26:00
5:42 PM,33.8,28.4,81,29.95,9.0,NW,21.9,-,0.00,,Overcast,310,2013-02-14 00:42:00
5:53 PM,33.1,28.9,85,30.07,8.0,NW,26.5,33.4,0.00,,Overcast,320,2013-02-14 00:53:00
6:23 PM,30.2,28.4,93,29.99,1.5,NW,16.1,-,0.00,Snow,Light Snow,320,2013-02-14 01:23:00
6:35 PM,30.2,30.2,100,29.99,1.2,NW,15.0,-,0.02,Snow,Light Snow,320,2013-02-14 01:35:00
6:49 PM,30.2,30.2,100,29.99,3.0,WNW,12.7,-,0.02,Snow,Light Snow,300,2013-02-14 01:49:00
6:53 PM,30.9,30.0,96,30.08,4.0,WNW,12.7,-,0.02,Snow,Light Snow,300,2013-02-14 01:53:00
6:57 PM,30.2,28.4,93,29.99,8.0,WNW,12.7,-,0.00,Snow,Light Snow,300,2013-02-14 01:57:00
7:40 PM,30.2,28.4,93,30.00,1.8,WNW,15.0,-,0.00,Snow,Light Snow,300,2013-02-14 02:40:00
7:48 PM,30.2,28.4,93,30.00,2.0,NW,13.8,-,0.00,Snow,Light Snow,310,2013-02-14 02:48:00
7:53 PM,30.9,28.9,92,30.11,4.0,NW,13.8,-,0.00,Snow,Light Snow,310,2013-02-14 02:53:00
8:02 PM,30.2,28.4,93,30.01,4.0,WNW,15.0,-,0.00,Snow,Light Snow,300,2013-02-14 03:02:00
8:07 PM,30.2,28.4,93,30.00,1.8,WNW,17.3,-,0.00,Snow,Light Snow,300,2013-02-14 03:07:00
8:21 PM,30.2,28.4,93,30.00,2.5,WNW,13.8,-,0.01,Snow,Light Snow,290,2013-02-14 03:21:00
8:28 PM,30.2,28.4,93,30.00,4.0,WNW,15.0,-,0.01,Snow,Light Snow,290,2013-02-14 03:28:00
8:38 PM,30.2,28.4,93,30.00,8.0,WNW,10.4,-,0.01,Snow,Light Snow,290,2013-02-14 03:38:00
8:53 PM,30.9,28.0,89,30.09,9.0,West,9.2,-,0.01,Snow,Light Snow,280,2013-02-14 03:53:00
9:53 PM,30.9,26.1,82,30.06,10.0,WNW,8.1,-,0.00,,Overcast,290,2013-02-14 04:53:00
10:53 PM,28.9,25.0,85,30.07,10.0,Calm,Calm,-,N/A,,Overcast,0,2013-02-14 05:53:00
11:53 PM,28.0,24.1,85,30.09,10.0,NNW,8.1,-,N/A,,Overcast,340,2013-02-14 06:53:00